TimeMDT,TemperatureF,Dew PointF,Humidity,Sea Level PressureIn,VisibilityMPH,Wind Direction,Wind SpeedMPH,Gust SpeedMPH,PrecipitationIn,Events,Conditions,WindDirDegrees,DateUTC
12:53 AM,73.0,59.0,61,29.88,10.0,East,15.0,-,N/A,,Partly Cloudy,80,2013-08-31 06:53:00
1:53 AM,73.0,60.1,64,29.89,10.0,East,12.7,-,N/A,,Mostly Cloudy,80,2013-08-31 07:53:00
2:53 AM,69.1,62.1,78,29.90,10.0,NNE,10.4,-,N/A,,Clear,30,2013-08-31 08:53:00
3:53 AM,68.0,61.0,78,29.88,10.0,East,6.9,-,N/A,,Clear,90,2013-08-31 09:53:00
4:53 AM,66.9,61.0,81,29.87,10.0,South,6.9,-,N/A,,Clear,170,2013-08-31 10:53:00
5:53 AM,68.0,61.0,78,29.87,10.0,SSE,9.2,-,N/A,,Clear,150,2013-08-31 11:53:00
6:53 AM,68.0,62.1,81,29.88,10.0,South,8.1,-,N/A,,Clear,190,2013-08-31 12:53:00
7:53 AM,71.1,62.1,73,29.89,10.0,SSW,8.1,-,N/A,,Clear,210,2013-08-31 13:53:00
8:53 AM,73.0,61.0,66,29.89,10.0,SSW,10.4,-,N/A,,Overcast,200,2013-08-31 14:53:00
9:53 AM,77.0,60.1,56,29.86,10.0,South,9.2,18.4,0.00,,Partly Cloudy,170,2013-08-31 15:53:00
10:53 AM,82.9,59.0,44,29.86,10.0,South,11.5,-,N/A,,Clear,190,2013-08-31 16:53:00
11:53 AM,87.1,57.9,37,29.87,10.0,WNW,12.7,-,N/A,,Clear,290,2013-08-31 17:53:00
12:53 PM,89.1,57.9,35,29.86,10.0,SW,8.1,-,N/A,,Clear,230,2013-08-31 18:53:00
1:53 PM,91.0,54.0,28,29.84,10.0,Variable,5.8,-,N/A,,Clear,0,2013-08-31 19:53:00
2:53 PM,96.1,54.0,24,29.81,10.0,South,8.1,-,N/A,,Clear,170,2013-08-31 20:53:00
3:53 PM,95.0,52.0,23,29.80,10.0,South,9.2,-,N/A,,Clear,180,2013-08-31 21:53:00
4:53 PM,91.9,54.0,27,29.78,10.0,SSE,8.1,-,N/A,,Clear,160,2013-08-31 22:53:00
5:53 PM,91.0,54.0,28,29.79,10.0,SE,5.8,-,N/A,,Clear,140,2013-08-31 23:53:00
6:53 PM,86.0,57.0,37,29.81,10.0,SSE,5.8,-,N/A,,Scattered Clouds,150,2013-09-01 00:53:00
7:53 PM,82.0,55.9,41,29.83,10.0,East,9.2,-,N/A,,Partly Cloudy,90,2013-09-01 01:53:00
8:53 PM,80.1,54.0,40,29.89,10.0,North,13.8,-,N/A,Thunderstorm,Overcast,360,2013-09-01 02:53:00
9:53 PM,69.1,59.0,70,29.95,7.0,WNW,16.1,-,0.15,Rain-Thunderstorm,Light Thunderstorms and Rain,300,2013-09-01 03:53:00
10:09 PM,69.8,60.8,73,30.07,10.0,West,9.2,-,0.00,Rain,Light Rain,260,2013-09-01 04:09:00
10:46 PM,71.6,59.0,64,30.00,10.0,SSW,10.4,-,0.00,,Scattered Clouds,200,2013-09-01 04:46:00
10:53 PM,72.0,59.0,64,29.86,10.0,SSW,8.1,-,0.00,,Partly Cloudy,200,2013-09-01 04:53:00
11:53 PM,71.1,61.0,70,29.88,10.0,SW,18.4,26.5,N/A,,Clear,220,2013-09-01 05:53:00